This demonstration page uses our WeatherBlox Daily Observations layout. Learn more.

41.55636, -103.73856

Hourly Observations for June 18, 2017

Temp ( °F °C ) Dew Point ( °F °C ) Humidity (%) Winds ( mph kmh ) Pressure ( in mb ) Visibility ( mi km ) Precip ( " mm )
12:53 am 00:53 Partly Cloudy 52 11.1 42 5.6 69 69 VRB 3 6 30.01 1016 10 16.0934 0 0
1:53 am 01:53 Clear 51 10.6 41 5 69 69 Calm 30.01 1016 10 16.0934 0 0
2:53 am 02:53 Clear 49 9.4 41 5 74 74 NW 7 11 30.02 1017 10 16.0934 0 0
3:53 am 03:53 Cloudy 51 10.6 43 6.1 74 74 Calm 30.01 1016 10 16.0934 0 0
4:53 am 04:53 Cloudy 51 10.6 44 6.7 77 77 NNW 5 7 30.01 1016 10 16.0934 0 0
5:53 am 05:53 Partly Cloudy 50 10 44 6.7 80 80 NW 3 6 30.02 1017 10 16.0934 0 0
6:53 am 06:53 Mostly Cloudy 55 12.8 43 6.1 64 64 WNW 5 7 30.01 1016 10 16.0934 0 0
7:53 am 07:53 Sunny 59 15 44 6.7 58 58 W 3 6 30.02 1017 10 16.0934 0 0
8:53 am 08:53 Sunny 63 17.2 43 6.1 48 48 Calm 30.02 1017 10 16.0934 0 0
9:53 am 09:53 Sunny 68 20 42 5.6 39 39 WSW 5 7 29.98 1015 10 16.0934 0 0
10:53 am 10:53 Sunny 72 22.2 43 6.1 35 35 VRB 7 11 29.96 1014 10 16.0934 0 0
11:53 am 11:53 Sunny 76 24.4 42 5.6 30 30 VRB 6 9 29.92 1013 10 16.0934 0 0
12:53 pm 12:53 Sunny 79 26.1 40 4.4 25 25 WSW 10 17 29.88 1012 10 16.0934 0 0
1:53 pm 13:53 Sunny 80 26.7 38 3.3 22 22 W 12 19 29.87 1011 10 16.0934 0 0
2:53 pm 14:53 Mostly Cloudy 80 26.7 40 4.4 24 24 NNW 18 30 29.86 1011 10 16.0934 0 0
3:53 pm 15:53 Cloudy 80 26.7 41 5 25 25 NNW 8 13 29.85 1011 10 16.0934 0 0
4:53 pm 16:53 Mostly Sunny 80 26.7 42 5.6 26 26 NW 12 19 29.85 1011 10 16.0934 0 0
5:53 pm 17:53 Sunny 80 26.7 45 7.2 29 29 N 16 26 29.86 1011 10 16.0934 0 0
6:53 pm 18:53 Sunny 77 25 47 8.3 35 35 NE 12 19 29.88 1012 10 16.0934 0 0
7:53 pm 19:53 Sunny 72 22.2 49 9.4 44 44 ENE 8 13 29.91 1013 10 16.0934 0 0
8:53 pm 20:53 Clear 69 20.6 48 8.9 47 47 NE 8 13 29.94 1014 10 16.0934 0 0
11:53 pm 23:53 Mostly Clear 63 17.2 48 8.9 58 58 NNE 5 7 29.98 1015 10 16.0934 0 0

Powered by AerisWeather